When you browse on this site, cookies collect data to enhance your experience and personalize the content and advertising you see.
Visit our Privacy Policy to learn more. By continuing to use the site, you agree to this use of cookies and data.
  • Em Portugal
  • Lista de países
  • Para 7 dias
  • Temperatura da água
  • Mapas de satélite
  • Mapa do tempo
  • Widgets de tempo
  • user-avatar
    Iniciar Sessão

    Previsão horária em Aleksandria

    Hoje, 22 Março, Sexta-feira

    Tempo Temperatura Precipitação Vento Pressão Humidade
    00:00 +14°C° 0 mm 3 m/s 763 mmHg 82%
    01:00 +15°C° 0 mm 2 m/s 763 mmHg 83%
    02:00 +15°C° 0 mm 2 m/s 762 mmHg 84%
    03:00 +15°C° 0 mm 2 m/s 762 mmHg 84%
    04:00 +14°C° 0 mm 2 m/s 762 mmHg 84%
    05:00 +14°C° 0 mm 2 m/s 762 mmHg 84%
    06:00 +15°C° 0 mm 2 m/s 763 mmHg 79%
    07:00 +16°C° 0 mm 2 m/s 763 mmHg 75%
    08:00 +17°C° 0 mm 2 m/s 763 mmHg 67%
    09:00 +19°C° 0 mm 2 m/s 763 mmHg 57%
    10:00 +21°C° 0 mm 3 m/s 763 mmHg 47%
    11:00 +24°C° 0 mm 3 m/s 763 mmHg 38%
    12:00 +23°C° 0 mm 4 m/s 762 mmHg 37%
    13:00 +25°C° 0 mm 4 m/s 762 mmHg 35%
    14:00 +25°C° 0 mm 5 m/s 761 mmHg 36%
    15:00 +25°C° 0 mm 5 m/s 761 mmHg 38%
    16:00 +23°C° 0 mm 5 m/s 761 mmHg 40%
    17:00 +22°C° 0 mm 6 m/s 761 mmHg 41%
    18:00 +21°C° 0 mm 5 m/s 761 mmHg 49%
    19:00 +19°C° 0 mm 5 m/s 761 mmHg 57%
    20:00 +18°C° 0 mm 4 m/s 761 mmHg 64%
    21:00 +17°C° 0 mm 4 m/s 761 mmHg 66%
    22:00 +17°C° 0 mm 4 m/s 761 mmHg 67%
    23:00 +17°C° 0 mm 3 m/s 761 mmHg 69%

    Amanhã, 23 Março, Sábado

    Tempo Temperatura Precipitação Vento Pressão Humidade
    00:00 +16°C° 0 mm 3 m/s 761 mmHg 68%
    01:00 +16°C° 0 mm 3 m/s 761 mmHg 68%
    02:00 +16°C° 0 mm 3 m/s 760 mmHg 67%
    03:00 +15°C° 0 mm 4 m/s 760 mmHg 66%
    04:00 +15°C° 0 mm 4 m/s 760 mmHg 65%
    05:00 +16°C° 0 mm 5 m/s 759 mmHg 64%
    06:00 +17°C° 0 mm 4 m/s 759 mmHg 64%
    07:00 +17°C° 0 mm 4 m/s 760 mmHg 65%
    08:00 +17°C° 0 mm 3 m/s 760 mmHg 65%
    09:00 +17°C° 0.2 mm 3 m/s 760 mmHg 65%
    10:00 +18°C° 0.2 mm 2 m/s 760 mmHg 65%
    11:00 +18°C° 0.2 mm 2 m/s 760 mmHg 65%
    12:00 +18°C° 0.1 mm 2 m/s 759 mmHg 63%
    13:00 +19°C° 0.1 mm 2 m/s 759 mmHg 62%
    14:00 +19°C° 0.1 mm 3 m/s 758 mmHg 61%
    15:00 +19°C° 0 mm 3 m/s 758 mmHg 60%
    16:00 +20°C° 0 mm 3 m/s 758 mmHg 59%
    17:00 +20°C° 0 mm 4 m/s 757 mmHg 58%
    18:00 +19°C° 0 mm 4 m/s 757 mmHg 64%
    19:00 +18°C° 0 mm 4 m/s 757 mmHg 69%
    20:00 +17°C° 0 mm 4 m/s 757 mmHg 75%
    21:00 +17°C° 0 mm 4 m/s 757 mmHg 76%
    22:00 +17°C° 0 mm 4 m/s 757 mmHg 78%
    23:00 +15°C° 0 mm 4 m/s 757 mmHg 79%

    Depois de amanhã, 24 Março, Domingo

    Tempo Temperatura Precipitação Vento Pressão Humidade
    00:00 +15°C° 0 mm 4 m/s 757 mmHg 80%
    01:00 +15°C° 0 mm 4 m/s 757 mmHg 81%
    02:00 +16°C° 0 mm 3 m/s 756 mmHg 82%
    03:00 +16°C° 0 mm 3 m/s 756 mmHg 82%
    04:00 +15°C° 0 mm 4 m/s 756 mmHg 82%
    05:00 +15°C° 0 mm 4 m/s 756 mmHg 82%
    06:00 +17°C° 0 mm 4 m/s 756 mmHg 75%
    07:00 +18°C° 0 mm 4 m/s 756 mmHg 68%
    08:00 +19°C° 0 mm 4 m/s 756 mmHg 62%
    09:00 +20°C° 0 mm 4 m/s 756 mmHg 58%
    10:00 +21°C° 0 mm 5 m/s 756 mmHg 55%
    11:00 +21°C° 0 mm 6 m/s 756 mmHg 52%
    12:00 +21°C° 0 mm 6 m/s 756 mmHg 52%
    13:00 +21°C° 0 mm 7 m/s 755 mmHg 51%
    14:00 +21°C° 0 mm 8 m/s 755 mmHg 51%
    15:00 +21°C° 0 mm 8 m/s 755 mmHg 55%
    16:00 +20°C° 0 mm 8 m/s 754 mmHg 59%
    17:00 +18°C° 0 mm 8 m/s 754 mmHg 63%
    18:00 +17°C° 0 mm 8 m/s 755 mmHg 65%
    19:00 +17°C° 0 mm 8 m/s 755 mmHg 67%
    20:00 +16°C° 0 mm 7 m/s 756 mmHg 69%
    21:00 +16°C° 0 mm 7 m/s 756 mmHg 67%
    22:00 +16°C° 0 mm 7 m/s 756 mmHg 66%
    23:00 +15°C° 0 mm 7 m/s 756 mmHg 64%

    25 Março, Segunda-feira

    Tempo Temperatura Precipitação Vento Pressão Humidade
    00:00 +15°C° 0 mm 6 m/s 756 mmHg 60%
    01:00 +15°C° 0 mm 6 m/s 756 mmHg 56%
    02:00 +15°C° 0 mm 6 m/s 756 mmHg 51%
    03:00 +15°C° 0 mm 6 m/s 756 mmHg 51%
    04:00 +15°C° 0 mm 6 m/s 756 mmHg 51%
    05:00 +15°C° 0 mm 6 m/s 756 mmHg 50%
    06:00 +15°C° 0 mm 6 m/s 756 mmHg 48%
    07:00 +16°C° 0 mm 6 m/s 756 mmHg 46%
    08:00 +17°C° 0 mm 6 m/s 757 mmHg 43%
    09:00 +17°C° 0 mm 6 m/s 757 mmHg 44%
    10:00 +17°C° 0 mm 6 m/s 757 mmHg 45%
    11:00 +17°C° 0 mm 6 m/s 757 mmHg 46%
    12:00 +19°C° 0 mm 5 m/s 757 mmHg 44%
    13:00 +19°C° 0 mm 5 m/s 757 mmHg 43%
    14:00 +19°C° 0 mm 5 m/s 757 mmHg 42%
    15:00 +19°C° 0 mm 4 m/s 757 mmHg 42%
    16:00 +19°C° 0 mm 3 m/s 757 mmHg 43%
    17:00 +18°C° 0 mm 3 m/s 757 mmHg 43%
    18:00 +17°C° 0 mm 3 m/s 757 mmHg 46%
    19:00 +16°C° 0 mm 2 m/s 758 mmHg 49%
    20:00 +16°C° 0 mm 2 m/s 758 mmHg 52%
    21:00 +15°C° 0 mm 2 m/s 759 mmHg 52%
    22:00 +15°C° 0 mm 2 m/s 759 mmHg 53%
    23:00 +15°C° 0 mm 2 m/s 759 mmHg 53%

    26 Março, Terça-feira

    Tempo Temperatura Precipitação Vento Pressão Humidade
    00:00 +14°C° 0 mm 2 m/s 759 mmHg 55%
    01:00 +14°C° 0 mm 2 m/s 759 mmHg 57%
    02:00 +13°C° 0 mm 3 m/s 759 mmHg 60%
    03:00 +14°C° 0 mm 3 m/s 759 mmHg 60%
    04:00 +14°C° 0 mm 4 m/s 759 mmHg 61%
    05:00 +14°C° 0 mm 5 m/s 759 mmHg 61%
    06:00 +15°C° 0 mm 5 m/s 759 mmHg 61%
    07:00 +15°C° 0 mm 5 m/s 759 mmHg 60%
    08:00 +16°C° 0 mm 5 m/s 760 mmHg 60%
    09:00 +16°C° 0 mm 5 m/s 760 mmHg 59%
    10:00 +17°C° 0 mm 5 m/s 760 mmHg 57%
    11:00 +17°C° 0 mm 5 m/s 760 mmHg 56%
    12:00 +19°C° 0 mm 6 m/s 760 mmHg 54%
    13:00 +20°C° 0 mm 6 m/s 759 mmHg 51%
    14:00 +20°C° 0 mm 6 m/s 759 mmHg 49%
    15:00 +20°C° 0 mm 6 m/s 759 mmHg 50%
    16:00 +20°C° 0 mm 6 m/s 759 mmHg 52%
    17:00 +19°C° 0 mm 6 m/s 759 mmHg 53%
    18:00 +17°C° 0 mm 5 m/s 760 mmHg 61%
    19:00 +16°C° 0 mm 5 m/s 760 mmHg 68%
    20:00 +15°C° 0 mm 4 m/s 761 mmHg 76%
    21:00 +15°C° 0 mm 4 m/s 761 mmHg 78%
    22:00 +15°C° 0 mm 4 m/s 761 mmHg 80%
    23:00 +15°C° 0 mm 4 m/s 761 mmHg 82%

    27 Março, Quarta-feira

    Tempo Temperatura Precipitação Vento Pressão Humidade
    00:00 +15°C° 0 mm 4 m/s 761 mmHg 82%
    01:00 +16°C° 0 mm 3 m/s 761 mmHg 83%
    02:00 +14°C° 0 mm 3 m/s 761 mmHg 83%
    03:00 +14°C° 0 mm 3 m/s 761 mmHg 83%
    04:00 +14°C° 0 mm 3 m/s 761 mmHg 83%
    05:00 +14°C° 0 mm 3 m/s 761 mmHg 83%
    06:00 +16°C° 0 mm 3 m/s 761 mmHg 77%
    07:00 +17°C° 0 mm 4 m/s 762 mmHg 71%
    08:00 +18°C° 0 mm 4 m/s 762 mmHg 65%
    09:00 +19°C° 0 mm 4 m/s 762 mmHg 57%
    10:00 +20°C° 0 mm 4 m/s 762 mmHg 48%
    11:00 +22°C° 0 mm 4 m/s 762 mmHg 40%
    12:00 +22°C° 0 mm 4 m/s 761 mmHg 38%
    13:00 +23°C° 0 mm 4 m/s 760 mmHg 36%
    14:00 +23°C° 0 mm 5 m/s 760 mmHg 35%
    15:00 +23°C° 0 mm 4 m/s 760 mmHg 38%
    16:00 +22°C° 0 mm 4 m/s 760 mmHg 41%
    17:00 +22°C° 0 mm 4 m/s 759 mmHg 44%
    18:00 +20°C° 0 mm 4 m/s 760 mmHg 52%
    19:00 +19°C° 0 mm 3 m/s 760 mmHg 60%
    20:00 +17°C° 0 mm 3 m/s 760 mmHg 69%
    21:00 +15°C° 0 mm 4 m/s 760 mmHg 71%
    22:00 +15°C° 0 mm 4 m/s 759 mmHg 73%
    23:00 +14°C° 0 mm 5 m/s 759 mmHg 76%
    Mostrar mais